Location: Pitton
(51.0667°N, 1.7000°W)
Time: 03:01:53
(UTC+00:00)

Meteor 1-24 Rocket - Pass Details

Date: 17 September 2019
Orbit: 791 x 926 km, 81.2° (Epoch: 22 October)

Event Time Altitude Azimuth Distance (km) Brightness Sun altitude
Rises 19:37:43 0° 352° (N) 3,427 7.3 -13.2°
Reaches altitude 10° 19:40:20 10° 1° (N) 2,508 6.4 -13.5°
Maximum altitude 19:45:33 36° 67° (ENE) 1,376 4.5 -14.3°
Enters shadow 19:48:39 22° 118° (ESE) 1,873 4.9 -14.8°
